QPF
0.00 0.00 0.00 0.00 0.00 0.00 0.00 0.00 0.00 0.01 0.00 0.00 0.00 0.00 0.00 0.01 0.01 0.01 0.02 0.04 0.04 0.08 0.11 0.11 0.12 0.10 0.10 0.18 0.18 0.14 0.17 0.16 0.18 0.19 0.16 0.15 0.14 0.10 0.08 0.05 0.03 0.02 0.01 0.01
0.00 0.00 0.00 0.00 0.00 0.00 0.00 0.00 0.01 0.01 0.01 0.00 0.00 0.00 0.01 0.01 0.01 0.01 0.02 0.03 0.04 0.06 0.10 0.12 0.14 0.11 0.08 0.11 0.16 0.14 0.15 0.15 0.15 0.16 0.15 0.14 0.12 0.07 0.05 0.03 0.03 0.01 0.01 0.01
0.00 0.00 0.00 0.00 0.00 0.00 0.00 0.00 0.00 0.00 0.00 0.01 0.01 0.01 0.03 0.02 0.01 0.00 0.01 0.02 0.04 0.05 0.08 0.10 0.12 0.10 0.08 0.08 0.11 0.12 0.12 0.13 0.12 0.12 0.12 0.10 0.09 0.06 0.05 0.04 0.03 0.01 0.01 0.00
0.00 0.00 0.00 0.00 0.00 0.00 0.00 0.00 0.00 0.00 0.00 0.01 0.01 0.03 0.05 0.05 0.02 0.01 0.00 0.01 0.03 0.06 0.08 0.08 0.07 0.08 0.06 0.05 0.09 0.12 0.12 0.11 0.10 0.10 0.10 0.08 0.06 0.06 0.05 0.03 0.03 0.02 0.01 0.00
0.00 0.00 0.00 0.00 0.00 0.00 0.00 0.00 0.00 0.00 0.00 0.01 0.04 0.05 0.04 0.03 0.03 0.01 0.01 0.01 0.01 0.03 0.06 0.06 0.05 0.05 0.05 0.04 0.08 0.09 0.11 0.10 0.08 0.08 0.10 0.09 0.07 0.05 0.04 0.03 0.03 0.02 0.01 0.01
0.00 0.00 0.00 0.00 0.00 0.00 0.00 0.00 0.00 0.01 0.03 0.08 0.10 0.05 0.04 0.03 0.01 0.00 0.00 0.01 0.01 0.02 0.03 0.04 0.04 0.04 0.05 0.04 0.07 0.08 0.09 0.09 0.07 0.06 0.06 0.06 0.07 0.05 0.05 0.04 0.03 0.01 0.01 0.01
0.00 0.00 0.00 0.00 0.00 0.00 0.00 0.00 0.02 0.07 0.16 0.17 0.09 0.04 0.02 0.00 0.00 0.00 0.00 0.00 0.01 0.01 0.02 0.03 0.03 0.03 0.04 0.05 0.06 0.08 0.08 0.06 0.05 0.04 0.05 0.06 0.06 0.04 0.04 0.03 0.02 0.01 0.01 0.01
0.00 0.00 0.00 0.00 0.00 0.00 0.00 0.00 0.02 0.07 0.10 0.10 0.06 0.02 0.01 0.00 0.00 0.00 0.00 0.00 0.00 0.01 0.01 0.02 0.02 0.02 0.02 0.03 0.04 0.06 0.07 0.05 0.05 0.05 0.05 0.05 0.04 0.02 0.02 0.02 0.02 0.01 0.00 0.00
0.00 0.00 0.01 0.00 0.00 0.00 0.00 0.00 0.00 0.01 0.01 0.02 0.03 0.02 0.02 0.01 0.00 0.00 0.00 0.00 0.00 0.00 0.01 0.02 0.02 0.02 0.02 0.02 0.02 0.04 0.06 0.06 0.06 0.05 0.04 0.04 0.03 0.02 0.02 0.02 0.01 0.00 0.00 0.00
0.00 0.00 0.01 0.00 0.00 0.00 0.00 0.00 0.00 0.00 0.01 0.03 0.05 0.07 0.08 0.06 0.02 0.00 0.00 0.00 0.00 0.00 0.00 0.01 0.01 0.01 0.02 0.02 0.02 0.03 0.04 0.04 0.04 0.03 0.03 0.02 0.02 0.01 0.02 0.01 0.01 0.00 0.00 0.00
0.00 0.00 0.00 0.00 0.00 0.00 0.00 0.00 0.00 0.01 0.00 0.02 0.07 0.10 0.10 0.09 0.03 0.00 0.00 0.00 0.00 0.00 0.00 0.00 0.00 0.01 0.01 0.02 0.02 0.02 0.03 0.04 0.03 0.02 0.03 0.03 0.02 0.01 0.01 0.01 0.00 0.00 0.00 0.00
0.01 0.00 0.00 0.00 0.01 0.01 0.00 0.00 0.01 0.02 0.02 0.02 0.03 0.07 0.09 0.07 0.03 0.01 0.00 0.00 0.00 0.00 0.00 0.00 0.00 0.00 0.00 0.01 0.01 0.00 0.01 0.02 0.01 0.01 0.02 0.03 0.02 0.01 0.01 0.01 0.01 0.00 0.00 0.00
0.02 0.01 0.01 0.03 0.03 0.03 0.02 0.01 0.00 0.01 0.02 0.02 0.02 0.05 0.10 0.12 0.06 0.01 0.00 0.00 0.00 0.00 0.00 0.00 0.00 0.01 0.00 0.00 0.00 0.00 0.00 0.00 0.01 0.02 0.03 0.02 0.01 0.01 0.01 0.01 0.01 0.01 0.01 0.01
0.02 0.02 0.01 0.04 0.07 0.11 0.09 0.03 0.01 0.01 0.02 0.02 0.02 0.06 0.09 0.14 0.11 0.03 0.01 0.00 0.00 0.00 0.00 0.01 0.01 0.03 0.03 0.01 0.00 0.00 0.00 0.01 0.02 0.04 0.04 0.03 0.03 0.02 0.02 0.02 0.02 0.02 0.02 0.02
0.02 0.02 0.01 0.01 0.04 0.05 0.05 0.04 0.02 0.01 0.01 0.01 0.02 0.06 0.10 0.10 0.15 0.07 0.02 0.00 0.00 0.00 0.01 0.01 0.01 0.01 0.04 0.04 0.02 0.01 0.01 0.03 0.05 0.08 0.06 0.05 0.05 0.06 0.05 0.04 0.05 0.05 0.04 0.03
0.02 0.02 0.01 0.01 0.02 0.02 0.02 0.01 0.01 0.01 0.00 0.00 0.02 0.05 0.07 0.09 0.11 0.06 0.02 0.01 0.00 0.00 0.00 0.00 0.00 0.00 0.02 0.03 0.02 0.01 0.02 0.03 0.04 0.08 0.10 0.07 0.06 0.06 0.05 0.05 0.06 0.07 0.06 0.05
0.06 0.03 0.02 0.02 0.01 0.02 0.01 0.01 0.01 0.01 0.01 0.01 0.03 0.06 0.09 0.09 0.04 0.02 0.01 0.01 0.00 0.00 0.00 0.00 0.00 0.01 0.01 0.01 0.01 0.01 0.01 0.03 0.04 0.05 0.07 0.08 0.10 0.09 0.07 0.05 0.05 0.04 0.04 0.04
0.13 0.10 0.05 0.03 0.04 0.06 0.02 0.01 0.01 0.01 0.02 0.03 0.03 0.04 0.08 0.08 0.03 0.01 0.00 0.00 0.00 0.00 0.00 0.00 0.01 0.01 0.02 0.02 0.01 0.01 0.01 0.02 0.04 0.05 0.06 0.06 0.09 0.11 0.10 0.09 0.07 0.06 0.06 0.05
0.16 0.16 0.12 0.08 0.09 0.08 0.05 0.03 0.02 0.03 0.04 0.03 0.04 0.05 0.04 0.03 0.02 0.02 0.01 0.00 0.00 0.00 0.00 0.00 0.00 0.01 0.01 0.02 0.02 0.02 0.03 0.04 0.06 0.08 0.08 0.06 0.07 0.09 0.11 0.10 0.09 0.09 0.09 0.09
0.11 0.13 0.11 0.07 0.10 0.13 0.12 0.07 0.03 0.05 0.11 0.04 0.03 0.05 0.03 0.04 0.10 0.09 0.03 0.01 0.00 0.00 0.00 0.00 0.01 0.01 0.01 0.01 0.02 0.03 0.05 0.05 0.07 0.07 0.08 0.08 0.09 0.10 0.10 0.11 0.12 0.13 0.12 0.11
0.09 0.08 0.06 0.06 0.09 0.11 0.10 0.09 0.05 0.11 0.16 0.04 0.03 0.05 0.05 0.05 0.06 0.04 0.02 0.01 0.01 0.01 0.01 0.01 0.03 0.03 0.02 0.02 0.03 0.05 0.08 0.09 0.08 0.07 0.08 0.10 0.15 0.20 0.18 0.15 0.14 0.14 0.13 0.11
0.10 0.09 0.08 0.07 0.11 0.16 0.10 0.05 0.08 0.11 0.07 0.05 0.02 0.02 0.02 0.01 0.01 0.01 0.01 0.01 0.01 0.01 0.01 0.02 0.03 0.04 0.05 0.05 0.05 0.06 0.07 0.06 0.05 0.05 0.06 0.07 0.11 0.14 0.16 0.17 0.15 0.13 0.12 0.10
0.17 0.17 0.13 0.11 0.12 0.11 0.08 0.05 0.04 0.04 0.04 0.04 0.02 0.01 0.01 0.01 0.02 0.01 0.01 0.01 0.01 0.01 0.01 0.02 0.02 0.02 0.04 0.05 0.06 0.09 0.08 0.07 0.08 0.09 0.08 0.07 0.06 0.07 0.08 0.09 0.09 0.08 0.07 0.06
0.25 0.20 0.19 0.18 0.15 0.09 0.05 0.03 0.01 0.01 0.02 0.01 0.00 0.00 0.01 0.02 0.03 0.02 0.02 0.02 0.02 0.01 0.01 0.02 0.02 0.03 0.02 0.02 0.02 0.03 0.05 0.05 0.07 0.09 0.11 0.09 0.07 0.06 0.06 0.05 0.05 0.05 0.05 0.05
0.25 0.19 0.18 0.20 0.18 0.13 0.07 0.02 0.01 0.01 0.01 0.01 0.01 0.01 0.02 0.02 0.02 0.02 0.02 0.02 0.01 0.01 0.01 0.01 0.02 0.03 0.03 0.03 0.02 0.02 0.02 0.03 0.06 0.09 0.09 0.08 0.06 0.06 0.05 0.05 0.05 0.06 0.06 0.06
0.12 0.16 0.16 0.16 0.14 0.11 0.08 0.02 0.01 0.01 0.01 0.01 0.01 0.01 0.01 0.00 0.00 0.01 0.02 0.02 0.02 0.01 0.01 0.01 0.01 0.01 0.01 0.01 0.01 0.01 0.02 0.02 0.03 0.03 0.04 0.04 0.03 0.03 0.03 0.04 0.04 0.04 0.03 0.03
MSLP
1007.69 1007.87 1007.86 1007.70 1007.49 1007.26 1007.07 1006.91 1006.76 1006.59 1006.37 1006.11 1005.83 1005.58 1005.46 1005.53 1005.85 1006.42 1007.20 1008.11 1009.04 1009.88 1010.52 1010.92 1011.08 1011.07 1010.99 1010.93 1011.01 1011.29 1011.80 1012.49 1013.28 1014.09 1014.82 1015.39 1015.76 1015.93 1015.95 1015.89 1015.83 1015.81 1015.90 1016.09
1007.98 1007.99 1007.79 1007.49 1007.17 1006.92 1006.76 1006.70 1006.70 1006.68 1006.59 1006.41 1006.16 1005.89 1005.68 1005.64 1005.84 1006.29 1006.99 1007.86 1008.78 1009.65 1010.35 1010.82 1011.05 1011.10 1011.06 1011.04 1011.15 1011.46 1011.99 1012.72 1013.56 1014.41 1015.17 1015.74 1016.10 1016.23 1016.20 1016.07 1015.94 1015.88 1015.94 1016.13
1008.04 1007.87 1007.52 1007.10 1006.74 1006.50 1006.44 1006.53 1006.70 1006.86 1006.92 1006.85 1006.63 1006.33 1006.03 1005.84 1005.87 1006.17 1006.74 1007.52 1008.41 1009.28 1010.03 1010.58 1010.91 1011.05 1011.09 1011.14 1011.30 1011.64 1012.20 1012.94 1013.80 1014.65 1015.40 1015.96 1016.29 1016.38 1016.30 1016.12 1015.94 1015.85 1015.90 1016.11
1007.80 1007.50 1007.04 1006.57 1006.22 1006.08 1006.16 1006.44 1006.82 1007.18 1007.41 1007.43 1007.25 1006.90 1006.49 1006.15 1005.99 1006.10 1006.50 1007.15 1007.97 1008.84 1009.64 1010.27 1010.70 1010.96 1011.10 1011.23 1011.45 1011.82 1012.39 1013.11 1013.94 1014.76 1015.47 1016.00 1016.29 1016.35 1016.24 1016.04 1015.84 1015.74 1015.79 1016.00
1007.30 1006.91 1006.41 1005.96 1005.69 1005.69 1005.96 1006.46 1007.07 1007.63 1008.01 1008.14 1007.98 1007.58 1007.05 1006.54 1006.18 1006.09 1006.30 1006.82 1007.55 1008.39 1009.22 1009.93 1010.47 1010.85 1011.10 1011.32 1011.59 1011.98 1012.52 1013.20 1013.96 1014.71 1015.36 1015.84 1016.09 1016.14 1016.02 1015.82 1015.63 1015.55 1015.61 1015.84
1006.59 1006.17 1005.69 1005.32 1005.19 1005.37 1005.86 1006.59 1007.41 1008.15 1008.68 1008.88 1008.73 1008.28 1007.64 1006.96 1006.41 1006.12 1006.16 1006.53 1007.17 1007.97 1008.82 1009.61 1010.25 1010.74 1011.10 1011.40 1011.71 1012.09 1012.59 1013.20 1013.87 1014.52 1015.09 1015.51 1015.74 1015.77 1015.67 1015.51 1015.36 1015.31 1015.40 1015.66
1005.81 1005.39 1004.99 1004.75 1004.79 1005.17 1005.87 1006.80 1007.79 1008.68 1009.31 1009.56 1009.41 1008.90 1008.16 1007.34 1006.63 1006.17 1006.05 1006.28 1006.83 1007.60 1008.46 1009.30 1010.04 1010.63 1011.08 1011.44 1011.78 1012.14 1012.59 1013.10 1013.67 1014.22 1014.70 1015.06 1015.27 1015.33 1015.27 1015.16 1015.08 1015.08 1015.21 1015.48
1005.06 1004.70 1004.41 1004.32 1004.54 1005.10 1005.96 1007.04 1008.15 1009.12 1009.80 1010.07 1009.90 1009.34 1008.52 1007.60 1006.77 1006.19 1005.94 1006.06 1006.53 1007.25 1008.11 1008.99 1009.79 1010.46 1010.99 1011.41 1011.76 1012.11 1012.50 1012.93 1013.39 1013.85 1014.26 1014.57 1014.77 1014.86 1014.86 1014.83 1014.82 1014.89 1015.06 1015.35
1004.46 1004.19 1004.03 1004.09 1004.46 1005.15 1006.13 1007.27 1008.42 1009.41 1010.07 1010.32 1010.12 1009.53 1008.66 1007.68 1006.79 1006.12 1005.79 1005.83 1006.23 1006.90 1007.74 1008.63 1009.47 1010.20 1010.78 1011.25 1011.63 1011.97 1012.31 1012.68 1013.06 1013.45 1013.80 1014.09 1014.30 1014.43 1014.50 1014.55 1014.62 1014.75 1014.96 1015.27
1004.07 1003.90 1003.87 1004.07 1004.55 1005.32 1006.33 1007.46 1008.57 1009.49 1010.08 1010.27 1010.03 1009.42 1008.54 1007.56 1006.65 1005.95 1005.58 1005.56 1005.90 1006.52 1007.32 1008.19 1009.04 1009.79 1010.42 1010.92 1011.33 1011.69 1012.02 1012.35 1012.69 1013.03 1013.36 1013.64 1013.87 1014.05 1014.19 1014.31 1014.46 1014.65 1014.91 1015.22
1003.89 1003.84 1003.93 1004.24 1004.78 1005.57 1006.53 1007.58 1008.56 1009.35 1009.83 1009.94 1009.66 1009.04 1008.19 1007.25 1006.37 1005.70 1005.31 1005.27 1005.55 1006.09 1006.83 1007.65 1008.47 1009.22 1009.87 1010.41 1010.85 1011.24 1011.59 1011.92 1012.26 1012.60 1012.92 1013.21 1013.47 1013.69 1013.90 1014.09 1014.30 1014.55 1014.84 1015.17
1003.86 1003.93 1004.14 1004.52 1005.10 1005.84 1006.71 1007.60 1008.41 1009.03 1009.36 1009.37 1009.06 1008.46 1007.67 1006.82 1006.02 1005.41 1005.05 1004.98 1005.20 1005.67 1006.31 1007.04 1007.79 1008.51 1009.15 1009.71 1010.20 1010.62 1011.01 1011.39 1011.75 1012.10 1012.44 1012.75 1013.04 1013.31 1013.56 1013.81 1014.08 1014.36 1014.68 1015.02
1003.92 1004.11 1004.41 1004.85 1005.42 1006.09 1006.81 1007.52 1008.12 1008.54 1008.73 1008.65 1008.31 1007.76 1007.08 1006.35 1005.68 1005.16 1004.85 1004.78 1004.94 1005.31 1005.83 1006.44 1007.09 1007.73 1008.33 1008.89 1009.40 1009.87 1010.31 1010.73 1011.13 1011.52 1011.88 1012.22 1012.53 1012.83 1013.12 1013.41 1013.71 1014.03 1014.37 1014.73
1003.99 1004.28 1004.66 1005.13 1005.67 1006.24 1006.81 1007.31 1007.70 1007.94 1007.98 1007.84 1007.51 1007.04 1006.49 1005.92 1005.41 1005.02 1004.79 1004.73 1004.84 1005.10 1005.48 1005.95 1006.46 1006.99 1007.52 1008.04 1008.55 1009.05 1009.52 1009.98 1010.42 1010.83 1011.22 1011.57 1011.90 1012.21 1012.52 1012.83 1013.16 1013.51 1013.87 1014.25
1004.02 1004.40 1004.84 1005.32 1005.81 1006.27 1006.67 1006.98 1007.17 1007.24 1007.17 1006.98 1006.69 1006.33 1005.95 1005.59 1005.27 1005.04 1004.91 1004.89 1004.96 1005.13 1005.37 1005.67 1006.03 1006.42 1006.84 1007.29 1007.77 1008.25 1008.74 1009.21 1009.67 1010.09 1010.48 1010.83 1011.16 1011.47 1011.78 1012.11 1012.45 1012.82 1013.20 1013.60
1004.05 1004.47 1004.94 1005.40 1005.81 1006.15 1006.39 1006.52 1006.53 1006.45 1006.30 1006.10 1005.89 1005.68 1005.50 1005.36 1005.28 1005.24 1005.24 1005.28 1005.35 1005.44 1005.56 1005.71 1005.90 1006.13 1006.42 1006.77 1007.17 1007.60 1008.06 1008.51 1008.95 1009.36 1009.73 1010.07 1010.38 1010.67 1010.98 1011.30 1011.65 1012.03 1012.44 1012.85
1004.12 1004.55 1004.99 1005.39 1005.71 1005.91 1005.98 1005.93 1005.79 1005.60 1005.40 1005.23 1005.11 1005.08 1005.12 1005.24 1005.40 1005.58 1005.75 1005.90 1005.99 1006.05 1006.07 1006.09 1006.13 1006.21 1006.35 1006.57 1006.86 1007.21 1007.60 1008.01 1008.40 1008.76 1009.10 1009.40 1009.67 1009.94 1010.23 1010.55 1010.89 1011.28 1011.69 1012.12
1004.32 1004.70 1005.06 1005.35 1005.53 1005.57 1005.47 1005.27 1005.00 1004.72 1004.49 1004.37 1004.37 1004.52 1004.79 1005.17 1005.59 1006.01 1006.38 1006.66 1006.83 1006.90 1006.87 1006.80 1006.72 1006.67 1006.67 1006.76 1006.94 1007.18 1007.48 1007.81 1008.13 1008.43 1008.71 1008.96 1009.19 1009.43 1009.69 1009.99 1010.33 1010.71 1011.11 1011.53
1004.72 1004.98 1005.20 1005.33 1005.34 1005.20 1004.93 1004.58 1004.19 1003.85 1003.62 1003.55 1003.68 1004.00 1004.50 1005.13 1005.80 1006.46 1007.03 1007.47 1007.75 1007.87 1007.85 1007.74 1007.59 1007.44 1007.34 1007.32 1007.39 1007.53 1007.74 1007.97 1008.22 1008.45 1008.67 1008.86 1009.05 1009.26 1009.49 1009.76 1010.07 1010.43 1010.81 1011.21
1005.32 1005.41 1005.45 1005.38 1005.18 1004.85 1004.41 1003.92 1003.44 1003.06 1002.83 1002.83 1003.07 1003.56 1004.26 1005.10 1005.99 1006.86 1007.63 1008.23 1008.63 1008.84 1008.87 1008.77 1008.60 1008.41 1008.26 1008.16 1008.15 1008.22 1008.34 1008.50 1008.68 1008.85 1009.01 1009.16 1009.30 1009.47 1009.66 1009.90 1010.18 1010.50 1010.84 1011.19
1006.06 1005.95 1005.76 1005.47 1005.06 1004.55 1003.96 1003.36 1002.82 1002.41 1002.22 1002.28 1002.62 1003.24 1004.08 1005.09 1006.15 1007.19 1008.11 1008.85 1009.38 1009.69 1009.80 1009.76 1009.62 1009.44 1009.28 1009.17 1009.12 1009.14 1009.22 1009.33 1009.46 1009.59 1009.70 1009.81 1009.91 1010.03 1010.18 1010.37 1010.61 1010.87 1011.16 1011.45
1006.81 1006.48 1006.06 1005.56 1004.97 1004.30 1003.61 1002.94 1002.38 1001.99 1001.84 1001.97 1002.40 1003.11 1004.05 1005.15 1006.31 1007.45 1008.46 1009.31 1009.93 1010.34 1010.54 1010.57 1010.51 1010.39 1010.27 1010.19 1010.15 1010.18 1010.25 1010.34 1010.45 1010.54 1010.62 1010.69 1010.76 1010.84 1010.94 1011.07 1011.24 1011.44 1011.66 1011.88
1007.40 1006.87 1006.26 1005.58 1004.85 1004.10 1003.36 1002.70 1002.17 1001.84 1001.77 1001.97 1002.47 1003.23 1004.21 1005.34 1006.53 1007.68 1008.73 1009.61 1010.29 1010.76 1011.04 1011.17 1011.19 1011.16 1011.13 1011.11 1011.13 1011.19 1011.28 1011.39 1011.48 1011.56 1011.62 1011.65 1011.68 1011.70 1011.75 1011.81 1011.91 1012.04 1012.18 1012.32
1007.69 1006.99 1006.24 1005.46 1004.67 1003.91 1003.21 1002.62 1002.20 1001.99 1002.02 1002.32 1002.87 1003.66 1004.63 1005.72 1006.86 1007.96 1008.96 1009.81 1010.50 1011.00 1011.34 1011.54 1011.66 1011.74 1011.80 1011.87 1011.97 1012.08 1012.21 1012.33 1012.42 1012.49 1012.52 1012.51 1012.49 1012.45 1012.42 1012.42 1012.44 1012.48 1012.55 1012.63
1007.58 1006.80 1005.98 1005.17 1004.41 1003.72 1003.15 1002.72 1002.47 1002.42 1002.60 1003.00 1003.61 1004.39 1005.32 1006.33 1007.36 1008.34 1009.24 1010.02 1010.65 1011.14 1011.51 1011.77 1011.97 1012.14 1012.29 1012.45 1012.61 1012.78 1012.94 1013.07 1013.16 1013.19 1013.18 1013.12 1013.03 1012.92 1012.82 1012.74 1012.68 1012.65 1012.66 1012.68
1007.13 1006.32 1005.51 1004.76 1004.10 1003.57 1003.19 1002.98 1002.95 1003.11 1003.46 1003.97 1004.63 1005.41 1006.27 1007.16 1008.05 1008.88 1009.64 1010.30 1010.85 1011.29 1011.65 1011.95 1012.20 1012.43 1012.66 1012.88 1013.09 1013.29 1013.45 1013.56 1013.61 1013.60 1013.53 1013.39 1013.23 1013.04 1012.86 1012.70 1012.58 1012.50 1012.46 1012.46
Thickness
5814 5802 5796 5807 5818 5818 5815 5811 5809 5816 5830 5821 5812 5808 5809 5809 5801 5792 5784 5777 5768 5762 5760 5756 5753 5752 5750 5748 5745 5745 5744 5743 5743 5742 5741 5739 5738 5741 5741 5740 5739 5738 5738 5736
5800 5798 5814 5826 5828 5824 5819 5810 5809 5816 5828 5821 5808 5803 5805 5806 5796 5794 5786 5776 5768 5761 5757 5754 5751 5749 5748 5746 5744 5744 5742 5741 5742 5742 5741 5740 5740 5741 5740 5740 5738 5738 5737 5736
5794 5809 5827 5824 5820 5816 5814 5809 5807 5808 5818 5821 5805 5787 5788 5795 5799 5795 5791 5782 5774 5764 5758 5754 5750 5748 5748 5745 5744 5744 5742 5742 5742 5742 5740 5740 5739 5739 5738 5736 5737 5737 5737 5736
5806 5821 5824 5819 5817 5816 5805 5820 5817 5813 5804 5794 5793 5764 5771 5783 5786 5788 5788 5783 5776 5770 5763 5757 5753 5750 5749 5747 5747 5745 5743 5742 5742 5741 5740 5739 5736 5735 5736 5737 5737 5737 5737 5735
5804 5818 5818 5813 5819 5822 5817 5828 5820 5811 5795 5780 5777 5765 5767 5784 5778 5784 5789 5786 5781 5775 5768 5761 5758 5755 5753 5751 5749 5746 5744 5742 5742 5742 5742 5740 5739 5739 5739 5739 5737 5736 5736 5735
5815 5831 5831 5827 5833 5833 5829 5821 5813 5801 5777 5742 5752 5755 5761 5786 5793 5794 5794 5790 5785 5779 5773 5767 5764 5760 5756 5754 5751 5748 5744 5743 5744 5743 5743 5742 5740 5740 5739 5737 5735 5735 5735 5735
5797 5814 5831 5837 5821 5826 5822 5797 5772 5754 5735 5730 5753 5759 5773 5803 5812 5806 5798 5793 5788 5784 5776 5769 5765 5761 5758 5755 5753 5750 5746 5743 5744 5744 5743 5742 5742 5741 5739 5738 5736 5736 5736 5735
5782 5788 5816 5825 5817 5811 5812 5801 5768 5742 5734 5746 5754 5761 5786 5812 5817 5814 5806 5799 5792 5786 5781 5775 5770 5765 5762 5759 5756 5752 5747 5745 5745 5745 5744 5743 5742 5742 5741 5740 5740 5739 5740 5740
5787 5791 5822 5827 5829 5822 5807 5804 5808 5780 5768 5757 5758 5766 5784 5802 5803 5807 5803 5797 5791 5787 5784 5779 5775 5770 5766 5763 5759 5756 5751 5748 5747 5746 5744 5743 5742 5743 5743 5742 5741 5742 5741 5741
5801 5788 5811 5823 5826 5828 5823 5815 5800 5780 5758 5750 5754 5743 5745 5771 5783 5797 5800 5797 5794 5791 5787 5784 5780 5776 5772 5769 5765 5761 5755 5751 5749 5748 5745 5744 5744 5743 5743 5742 5741 5741 5741 5740
5812 5790 5799 5811 5802 5802 5807 5803 5794 5786 5782 5758 5740 5740 5763 5771 5782 5792 5801 5801 5798 5795 5791 5787 5784 5781 5776 5773 5768 5762 5757 5753 5750 5749 5747 5746 5745 5744 5743 5741 5741 5740 5740 5738
5809 5798 5786 5799 5814 5816 5805 5798 5789 5766 5765 5772 5760 5752 5785 5787 5789 5798 5803 5803 5801 5799 5796 5792 5788 5783 5777 5773 5769 5764 5760 5756 5754 5752 5749 5747 5746 5745 5743 5741 5740 5739 5737 5735
5795 5786 5768 5774 5785 5790 5784 5789 5791 5784 5775 5767 5757 5755 5784 5788 5788 5795 5801 5801 5798 5795 5794 5791 5786 5781 5778 5775 5772 5768 5764 5760 5757 5754 5751 5748 5746 5744 5742 5741 5740 5738 5735 5733
5789 5777 5769 5762 5763 5763 5757 5763 5774 5772 5764 5762 5763 5764 5768 5772 5776 5786 5791 5796 5795 5793 5791 5788 5781 5779 5777 5776 5774 5771 5767 5764 5760 5756 5751 5748 5746 5744 5742 5740 5738 5736 5733 5730
5780 5770 5777 5782 5780 5769 5757 5758 5765 5767 5774 5769 5767 5765 5766 5772 5774 5781 5787 5791 5791 5789 5787 5784 5781 5779 5777 5774 5773 5772 5769 5766 5762 5757 5752 5749 5747 5744 5741 5739 5736 5734 5731 5728
5768 5764 5768 5770 5780 5776 5766 5768 5771 5775 5782 5780 5773 5762 5774 5778 5778 5777 5781 5782 5782 5782 5782 5782 5780 5777 5774 5772 5772 5772 5770 5767 5764 5758 5754 5751 5747 5744 5740 5738 5735 5731 5728 5725
5745 5748 5749 5754 5770 5767 5759 5775 5778 5779 5783 5779 5764 5763 5769 5765 5766 5767 5770 5773 5774 5775 5777 5777 5776 5775 5773 5773 5772 5768 5767 5764 5760 5756 5753 5749 5746 5741 5739 5736 5732 5728 5724 5720
5725 5729 5738 5746 5749 5727 5763 5786 5784 5774 5776 5779 5773 5768 5763 5758 5760 5763 5767 5765 5765 5767 5768 5771 5772 5771 5771 5771 5769 5767 5764 5760 5756 5752 5748 5745 5741 5737 5734 5730 5726 5723 5719 5715
5729 5725 5727 5733 5730 5733 5753 5769 5769 5759 5755 5770 5764 5761 5761 5759 5752 5748 5755 5758 5757 5758 5759 5761 5764 5764 5763 5762 5761 5757 5754 5752 5747 5743 5740 5738 5736 5731 5727 5722 5719 5716 5711 5708
5734 5734 5725 5728 5720 5711 5732 5756 5768 5761 5739 5758 5760 5755 5755 5754 5734 5728 5742 5745 5746 5746 5747 5747 5749 5750 5749 5748 5748 5745 5740 5737 5733 5732 5730 5729 5726 5722 5718 5715 5711 5707 5703 5699
5715 5719 5721 5724 5719 5723 5739 5751 5755 5729 5724 5746 5750 5749 5745 5738 5731 5730 5733 5731 5732 5733 5733 5733 5732 5731 5731 5732 5732 5726 5724 5720 5721 5722 5720 5717 5713 5710 5707 5704 5701 5697 5693 5690
5702 5712 5716 5719 5708 5706 5736 5740 5732 5728 5741 5741 5741 5741 5735 5731 5728 5724 5721 5719 5719 5719 5719 5719 5716 5715 5715 5716 5714 5710 5707 5707 5709 5709 5706 5704 5701 5699 5695 5692 5689 5686 5683 5680
5694 5697 5700 5704 5705 5720 5732 5733 5735 5740 5734 5734 5733 5732 5728 5721 5715 5711 5709 5707 5706 5705 5704 5704 5702 5699 5699 5699 5699 5693 5692 5694 5694 5692 5691 5689 5687 5684 5681 5678 5676 5673 5670 5668
5684 5695 5693 5694 5701 5711 5720 5728 5733 5734 5731 5730 5728 5723 5718 5710 5705 5700 5697 5694 5693 5691 5690 5689 5688 5685 5682 5682 5682 5680 5679 5679 5678 5677 5675 5674 5672 5670 5667 5664 5663 5660 5657 5655
5680 5687 5688 5686 5695 5702 5708 5717 5721 5722 5722 5719 5717 5712 5706 5700 5693 5688 5683 5681 5679 5677 5676 5675 5673 5670 5668 5668 5666 5666 5666 5666 5664 5662 5661 5659 5659 5658 5655 5653 5651 5648 5645 5642
5682 5682 5680 5681 5692 5693 5696 5708 5712 5709 5706 5704 5700 5695 5692 5687 5681 5677 5672 5669 5667 5664 5663 5661 5659 5657 5655 5654 5653 5652 5652 5651 5650 5648 5647 5647 5646 5644 5643 5641 5640 5638 5635 5631